When you browse on this site, cookies collect data to enhance your experience and personalize the content and advertising you see.
Visit our Privacy Policy to learn more. By continuing to use the site, you agree to this use of cookies and data.
  • In Latvia
  • List of Countries
  • For 7 days
  • Water Temperature
  • Satellite Maps
  • Weather Map
  • Weather Widgets
  • user-avatar
    Login

    Hourly Weather Prichtovskiy

    Today, 25 March, Monday

    Time Temperature Precipitation Wind Pressure Humidity
    00:00 -1°C° 0 mm 2 mps 739 mmHg 86%
    01:00 -1°C° 0 mm 2 mps 739 mmHg 85%
    02:00 0°C° 0 mm 1 mps 739 mmHg 83%
    03:00 0°C° 0 mm 1 mps 739 mmHg 82%
    04:00 0°C° 0 mm 1 mps 739 mmHg 79%
    05:00 0°C° 0 mm 1 mps 739 mmHg 77%
    06:00 +1°C° 0 mm 1 mps 739 mmHg 75%
    07:00 +2°C° 0 mm 1 mps 739 mmHg 68%
    08:00 +4°C° 0 mm 1 mps 739 mmHg 60%
    09:00 +6°C° 0 mm 1 mps 738 mmHg 53%
    10:00 +8°C° 0 mm 1 mps 738 mmHg 50%
    11:00 +9°C° 0 mm 1 mps 738 mmHg 48%
    12:00 +10°C° 0 mm 1 mps 738 mmHg 46%
    13:00 +10°C° 0 mm 1 mps 737 mmHg 47%
    14:00 +11°C° 0 mm 1 mps 737 mmHg 47%
    15:00 +10°C° 0 mm 2 mps 737 mmHg 48%
    16:00 +10°C° 0 mm 1 mps 737 mmHg 54%
    17:00 +9°C° 0 mm 1 mps 737 mmHg 60%
    18:00 +8°C° 0 mm 1 mps 736 mmHg 66%
    19:00 +7°C° 0 mm 1 mps 737 mmHg 70%
    20:00 +6°C° 0 mm 1 mps 737 mmHg 74%
    21:00 +5°C° 0 mm 1 mps 737 mmHg 78%
    22:00 +4°C° 0 mm 1 mps 737 mmHg 78%
    23:00 +4°C° 0 mm 1 mps 737 mmHg 79%

    Tomorrow, 26 March, Tuesday

    Time Temperature Precipitation Wind Pressure Humidity
    00:00 +3°C° 0 mm 1 mps 737 mmHg 80%
    01:00 +3°C° 0 mm 1 mps 737 mmHg 79%
    02:00 +3°C° 0 mm 1 mps 737 mmHg 79%
    03:00 +3°C° 0 mm 1 mps 737 mmHg 78%
    04:00 +3°C° 0 mm 1 mps 736 mmHg 78%
    05:00 +3°C° 0 mm 1 mps 736 mmHg 77%
    06:00 +3°C° 0 mm 1 mps 736 mmHg 76%
    07:00 +5°C° 0 mm 1 mps 736 mmHg 69%
    08:00 +6°C° 0 mm 0 mps 736 mmHg 61%
    09:00 +9°C° 0 mm 0 mps 736 mmHg 53%
    10:00 +10°C° 0 mm 0 mps 736 mmHg 49%
    11:00 +13°C° 0 mm 1 mps 736 mmHg 45%
    12:00 +15°C° 0 mm 1 mps 736 mmHg 41%
    13:00 +15°C° 0 mm 1 mps 735 mmHg 41%
    14:00 +15°C° 0 mm 2 mps 735 mmHg 41%
    15:00 +15°C° 0 mm 2 mps 734 mmHg 40%
    16:00 +14°C° 0 mm 2 mps 734 mmHg 46%
    17:00 +13°C° 0 mm 1 mps 734 mmHg 52%
    18:00 +12°C° 0 mm 1 mps 734 mmHg 58%
    19:00 +10°C° 0 mm 1 mps 734 mmHg 61%
    20:00 +9°C° 0 mm 1 mps 735 mmHg 64%
    21:00 +8°C° 0 mm 1 mps 735 mmHg 67%
    22:00 +7°C° 0 mm 1 mps 735 mmHg 68%
    23:00 +7°C° 0 mm 1 mps 735 mmHg 69%

    Day after tomorrow, 27 March, Wednesday

    Time Temperature Precipitation Wind Pressure Humidity
    00:00 +7°C° 0 mm 1 mps 735 mmHg 71%
    01:00 +6°C° 0 mm 1 mps 735 mmHg 73%
    02:00 +6°C° 0 mm 1 mps 735 mmHg 74%
    03:00 +6°C° 0 mm 1 mps 736 mmHg 76%
    04:00 +5°C° 0 mm 1 mps 736 mmHg 78%
    05:00 +5°C° 0 mm 1 mps 736 mmHg 79%
    06:00 +5°C° 0 mm 1 mps 736 mmHg 80%
    07:00 +7°C° 0 mm 1 mps 736 mmHg 73%
    08:00 +9°C° 0 mm 1 mps 737 mmHg 67%
    09:00 +11°C° 0 mm 1 mps 737 mmHg 60%
    10:00 +12°C° 0 mm 2 mps 737 mmHg 57%
    11:00 +13°C° 0 mm 2 mps 737 mmHg 55%
    12:00 +13°C° 0 mm 3 mps 737 mmHg 53%
    13:00 +13°C° 0 mm 3 mps 738 mmHg 55%
    14:00 +13°C° 0 mm 4 mps 738 mmHg 57%
    15:00 +13°C° 0 mm 4 mps 738 mmHg 59%
    16:00 +12°C° 0.1 mm 4 mps 738 mmHg 65%
    17:00 +11°C° 0.1 mm 4 mps 738 mmHg 71%
    18:00 +10°C° 0.1 mm 4 mps 739 mmHg 77%
    19:00 +8°C° 0.1 mm 4 mps 739 mmHg 75%
    20:00 +8°C° 0.1 mm 3 mps 740 mmHg 74%
    21:00 +7°C° 0.1 mm 3 mps 741 mmHg 72%
    22:00 +5°C° 0.1 mm 3 mps 741 mmHg 72%
    23:00 +4°C° 0.1 mm 3 mps 741 mmHg 71%

    28 March, Thursday

    Time Temperature Precipitation Wind Pressure Humidity
    00:00 +3°C° 0.1 mm 3 mps 742 mmHg 71%
    01:00 +4°C° 0 mm 2 mps 742 mmHg 75%
    02:00 +3°C° 0 mm 2 mps 742 mmHg 78%
    03:00 +2°C° 0 mm 2 mps 742 mmHg 81%
    04:00 +2°C° 0 mm 2 mps 743 mmHg 83%
    05:00 +2°C° 0 mm 1 mps 743 mmHg 84%
    06:00 +1°C° 0 mm 1 mps 743 mmHg 86%
    07:00 +3°C° 0 mm 1 mps 744 mmHg 75%
    08:00 +4°C° 0 mm 1 mps 744 mmHg 65%
    09:00 +4°C° 0 mm 2 mps 744 mmHg 54%
    10:00 +5°C° 0 mm 2 mps 744 mmHg 49%
    11:00 +6°C° 0 mm 2 mps 744 mmHg 45%
    12:00 +7°C° 0 mm 3 mps 744 mmHg 40%
    13:00 +7°C° 0 mm 3 mps 744 mmHg 39%
    14:00 +7°C° 0 mm 3 mps 744 mmHg 39%
    15:00 +7°C° 0 mm 3 mps 743 mmHg 39%
    16:00 +7°C° 0 mm 2 mps 743 mmHg 42%
    17:00 +6°C° 0 mm 2 mps 743 mmHg 46%
    18:00 +6°C° 0 mm 2 mps 744 mmHg 50%
    19:00 +6°C° 0 mm 1 mps 744 mmHg 52%
    20:00 +5°C° 0 mm 1 mps 744 mmHg 54%
    21:00 +5°C° 0 mm 1 mps 744 mmHg 57%
    22:00 +4°C° 0 mm 1 mps 744 mmHg 59%
    23:00 +4°C° 0 mm 1 mps 744 mmHg 61%

    29 March, Friday

    Time Temperature Precipitation Wind Pressure Humidity
    00:00 +3°C° 0 mm 2 mps 745 mmHg 63%
    01:00 +2°C° 0 mm 2 mps 744 mmHg 65%
    02:00 +2°C° 0 mm 2 mps 744 mmHg 66%
    03:00 +2°C° 0 mm 2 mps 744 mmHg 67%
    04:00 +1°C° 0 mm 2 mps 744 mmHg 69%
    05:00 +1°C° 0 mm 2 mps 744 mmHg 71%
    06:00 -1°C° 0 mm 2 mps 745 mmHg 73%
    07:00 +1°C° 0 mm 3 mps 745 mmHg 67%
    08:00 +2°C° 0 mm 3 mps 745 mmHg 61%
    09:00 +3°C° 0 mm 3 mps 745 mmHg 55%
    10:00 +4°C° 0 mm 3 mps 745 mmHg 52%
    11:00 +5°C° 0 mm 3 mps 744 mmHg 50%
    12:00 +6°C° 0 mm 4 mps 744 mmHg 47%
    13:00 +6°C° 0 mm 4 mps 744 mmHg 46%
    14:00 +7°C° 0 mm 4 mps 743 mmHg 45%
    15:00 +7°C° 0 mm 4 mps 743 mmHg 44%
    16:00 +7°C° 0 mm 3 mps 743 mmHg 47%
    17:00 +7°C° 0 mm 3 mps 743 mmHg 50%
    18:00 +5°C° 0 mm 3 mps 743 mmHg 53%
    19:00 +4°C° 0 mm 3 mps 743 mmHg 57%
    20:00 +4°C° 0 mm 2 mps 743 mmHg 60%
    21:00 +2°C° 0 mm 2 mps 743 mmHg 64%
    22:00 +2°C° 0 mm 2 mps 743 mmHg 66%
    23:00 +1°C° 0 mm 2 mps 743 mmHg 69%

    30 March, Saturday

    Time Temperature Precipitation Wind Pressure Humidity
    00:00 +1°C° 0 mm 2 mps 742 mmHg 71%
    01:00 -1°C° 0 mm 2 mps 742 mmHg 72%
    02:00 -1°C° 0 mm 2 mps 742 mmHg 74%
    03:00 +1°C° 0 mm 1 mps 742 mmHg 75%
    04:00 +1°C° 0 mm 1 mps 741 mmHg 76%
    05:00 +1°C° 0 mm 1 mps 741 mmHg 76%
    06:00 -1°C° 0 mm 2 mps 741 mmHg 77%
    07:00 +2°C° 0 mm 2 mps 741 mmHg 70%
    08:00 +4°C° 0 mm 2 mps 741 mmHg 63%
    09:00 +5°C° 0 mm 3 mps 741 mmHg 55%
    10:00 +8°C° 0 mm 3 mps 740 mmHg 51%
    11:00 +9°C° 0 mm 3 mps 740 mmHg 47%
    12:00 +11°C° 0 mm 4 mps 739 mmHg 42%
    13:00 +11°C° 0 mm 4 mps 739 mmHg 41%
    14:00 +12°C° 0 mm 4 mps 738 mmHg 40%
    15:00 +12°C° 0 mm 4 mps 738 mmHg 40%
    16:00 +11°C° 0 mm 4 mps 738 mmHg 44%
    17:00 +10°C° 0 mm 4 mps 738 mmHg 49%
    18:00 +8°C° 0 mm 4 mps 737 mmHg 53%
    19:00 +7°C° 0 mm 4 mps 738 mmHg 57%
    20:00 +6°C° 0 mm 4 mps 738 mmHg 61%
    21:00 +5°C° 0 mm 4 mps 738 mmHg 64%
    22:00 +4°C° 0 mm 4 mps 738 mmHg 66%
    23:00 +4°C° 0 mm 4 mps 737 mmHg 68%
    Show more